This is the latest recevied weather packets stored in our database for station/object W4FXD. If no packets are shown the sender has not sent any weather packets the latest 1 day(s).
| Time | Temp. | Humidity | Pressure | Rain* | Wind** | Luminosity | Snow |
|---|---|---|---|---|---|---|---|
| 1778037842 | 21.67° C | 50% | 1011.8 hPa | 0 mm | 0.45 m/s, 200° | 0 W/m² | - |
| 1778037538 | 21.67° C | 50% | 1011.6 hPa | 0 mm | 0.45 m/s, 178° | 0 W/m² | - |
| 1778037236 | 21.67° C | 50% | 1011.7 hPa | 0 mm | 0.89 m/s, 173° | 0 W/m² | - |
| 1778036933 | 21.67° C | 50% | 1012.1 hPa | 0 mm | 0.89 m/s, 208° | 0 W/m² | - |
| 1778036631 | 21.67° C | 50% | 1011.9 hPa | 0 mm | 0 m/s | 0 W/m² | - |
| 1778036328 | 21.67° C | 49% | 1011.8 hPa | 0 mm | 1.34 m/s, 163° | 0 W/m² | - |
| 1778036024 | 21.67° C | 50% | 1012 hPa | 0 mm | 0.89 m/s, 356° | 0 W/m² | - |
| 1778035722 | 21.67° C | 50% | 1011.9 hPa | 0 mm | 1.34 m/s, 191° | 0 W/m² | - |
| 1778035418 | 21.67° C | 50% | 1012 hPa | 0 mm | 1.34 m/s, 182° | 0 W/m² | - |
| 1778035115 | 21.67° C | 50% | 1011.9 hPa | 0 mm | 0.45 m/s, 173° | 0 W/m² | - |
| 1778034811 | 21.11° C | 50% | 1011.8 hPa | 0 mm | 0 m/s | 0 W/m² | - |
| 1778034508 | 21.11° C | 50% | 1011.6 hPa | 0 mm | 0 m/s | 0 W/m² | - |
| 1778034206 | 21.11° C | 50% | 1011.7 hPa | 0 mm | 0.89 m/s, 196° | 0 W/m² | - |
| 1778033904 | 21.11° C | 50% | 1011.8 hPa | 0 mm | 0.89 m/s, 176° | 0 W/m² | - |
| 1778033600 | 21.11° C | 50% | 1012 hPa | 0 mm | 0.45 m/s, 174° | 0 W/m² | - |
| 1778033297 | 21.11° C | 49% | 1012 hPa | 0 mm | 0.45 m/s, 152° | 0 W/m² | - |
| 1778032995 | 21.11° C | 49% | 1011.8 hPa | 0 mm | 1.34 m/s, 167° | 0 W/m² | - |
| 1778032693 | 21.11° C | 49% | 1011.6 hPa | 0 mm | 0.45 m/s, 174° | 0 W/m² | - |
| 1778032390 | 21.11° C | 49% | 1011.6 hPa | 0 mm | 0.45 m/s, 204° | 0 W/m² | - |
| 1778032086 | 21.11° C | 49% | 1011.6 hPa | 0 mm | 0 m/s | 0 W/m² | - |
| 1778031783 | 21.11° C | 49% | 1011.3 hPa | 0 mm | 0.89 m/s, 167° | 0 W/m² | - |
| 1778031480 | 21.11° C | 49% | 1011.4 hPa | 0 mm | 0.45 m/s, 160° | 0 W/m² | - |
| 1778031177 | 21.11° C | 50% | 1010.9 hPa | 0 mm | 0.89 m/s, 180° | 0 W/m² | - |
| 1778030874 | 21.67° C | 49% | 1011 hPa | 0 mm | 0.45 m/s, 146° | 0 W/m² | - |
| 1778030571 | 21.67° C | 48% | 1010.9 hPa | 0 mm | 0.45 m/s, 190° | 0 W/m² | - |
* Rain latest hour (hover to see other rain measurements)
** Current wind speed in m/s (hover to see current wind gust speed)